Wrangell, AK

2:36 PM AKDT on March 30, 2017 (GMT -0800)
Wrangell

Weather History for PAWG - January, 2014

Change the Weather History Date:

Wednesday, January 15, 2014

  Actual Average Record
Temperature  
Mean Temperature 42 °F -  
Max Temperature 44 °F 32 °F 61 °F (1981)
Min Temperature 41 °F 22 °F -5 °F (1971)
Degree Days  
Heating Degree Days 22    
Moisture  
Dew Point 34 °F    
Average Humidity 73    
Maximum Humidity 81    
Minimum Humidity 61    
Precipitation  
Precipitation 0.00 in - - ()
Sea Level Pressure  
Sea Level Pressure 30.39 in    
Wind  
Wind Speed 7 mph (ESE)    
Max Wind Speed 16 mph    
Max Gust Speed 20 mph    
Visibility 10 miles    
Events      
Averages and records for this station are not official NWS values.
T = Trace of Precipitation, MM = Missing Value Source: NWS Daily Summary

Daily Weather History Graph

Daily Weather History Graph

Search for Another Location

Airport or City:

Trip Planner

Search our weather history database for the weather conditions in past years. The results will help you decide how hot, cold, wet, or windy it might be!

Date:

Astronomy

Jan. 15, 2014 Rise Set
Actual Time 8:13 AM AKST 3:45 PM AKST
Civil Twilight 7:27 AM AKST 4:30 PM AKST
Nautical Twilight 6:39 AM AKST 5:18 PM AKST
Astronomical Twilight 5:54 AM AKST 6:03 PM AKST
Moon 4:02 PM AKST (1/15) 7:22 AM AKST (1/15)
Length of Visible Light 9h 02m
Length of Day
7h 32m
Full, 100% of the Moon is Illuminated
Jan 15
Full
Jan 15
Full
Jan 23
Last Quarter
Jan 30
New
Feb 6
First Quarter

Hourly Weather History & Observations

Time (AKST) Temp. Windchill Dew Point Humidity Pressure Visibility Wind Dir Wind Speed Gust Speed Precip Events Conditions
12:16 AM 44.6 °F 41.4 °F 32.0 °F 61% 30.29 in 10.0 mi SW 5.8 mph - N/A   Overcast
12:36 AM 42.8 °F 40.1 °F 32.0 °F 66% 30.30 in 10.0 mi SSW 4.6 mph - N/A   Mostly Cloudy
12:56 AM 42.8 °F 41.1 °F 32.0 °F 66% 30.30 in 10.0 mi South 3.5 mph - N/A   Scattered Clouds
1:16 AM 44.6 °F 41.4 °F 33.8 °F 66% 30.31 in 10.0 mi South 5.8 mph - N/A   Mostly Cloudy
1:36 AM 44.6 °F 42.2 °F 33.8 °F 66% 30.31 in 10.0 mi SE 4.6 mph - N/A   Overcast
1:56 AM 44.6 °F - 33.8 °F 66% 30.33 in 10.0 mi Calm Calm - N/A   Overcast
2:16 AM 44.6 °F 43.1 °F 33.8 °F 66% 30.34 in 10.0 mi SSW 3.5 mph - N/A   Overcast
2:36 AM 42.8 °F - 33.8 °F 70% 30.35 in 10.0 mi Calm Calm - N/A   Overcast
2:56 AM 44.6 °F 40.7 °F 32.0 °F 61% 30.35 in 10.0 mi SSE 6.9 mph - N/A   Overcast
3:16 AM 44.6 °F 41.4 °F 32.0 °F 61% 30.36 in 10.0 mi SSW 5.8 mph - N/A   Overcast
3:36 AM 44.6 °F 43.1 °F 33.8 °F 66% 30.37 in 10.0 mi SSE 3.5 mph - N/A   Mostly Cloudy
3:56 AM 44.6 °F 42.2 °F 32.0 °F 61% 30.38 in 10.0 mi South 4.6 mph - N/A   Overcast
4:16 AM 44.6 °F 42.2 °F 32.0 °F 61% 30.38 in 10.0 mi South 4.6 mph - N/A   Mostly Cloudy
4:36 AM 44.6 °F 42.2 °F 32.0 °F 61% 30.38 in 10.0 mi South 4.6 mph - N/A   Mostly Cloudy
4:56 AM 44.6 °F 41.4 °F 32.0 °F 61% 30.39 in 10.0 mi South 5.8 mph - N/A   Mostly Cloudy
5:16 AM 44.6 °F 41.4 °F 33.8 °F 66% 30.39 in 10.0 mi SE 5.8 mph - N/A   Mostly Cloudy
5:36 AM 44.6 °F 43.1 °F 32.0 °F 61% 30.40 in 10.0 mi SE 3.5 mph - N/A   Partly Cloudy
5:56 AM 42.8 °F 38.6 °F 32.0 °F 66% 30.41 in 10.0 mi South 6.9 mph - N/A   Mostly Cloudy
6:16 AM 42.8 °F - 33.8 °F 70% 30.42 in 10.0 mi Calm Calm - N/A   Overcast
6:36 AM 42.8 °F 37.5 °F 32.0 °F 66% 30.42 in 10.0 mi SSE 9.2 mph - N/A   Overcast
6:56 AM 42.8 °F 38.0 °F 33.8 °F 70% 30.42 in 10.0 mi ESE 8.1 mph - N/A   Overcast
7:16 AM 42.8 °F 37.5 °F 35.6 °F 76% 30.42 in 10.0 mi East 9.2 mph - N/A   Overcast
7:36 AM 42.8 °F 37.5 °F 35.6 °F 76% 30.43 in 10.0 mi East 9.2 mph - N/A   Overcast
7:56 AM 42.8 °F 38.0 °F 35.6 °F 76% 30.44 in 10.0 mi ESE 8.1 mph - N/A   Overcast
8:16 AM 42.8 °F 41.1 °F 33.8 °F 70% 30.45 in 10.0 mi NNW 3.5 mph - N/A   Overcast
8:36 AM 42.8 °F 38.0 °F 35.6 °F 76% 30.45 in 10.0 mi ENE 8.1 mph - N/A   Overcast
8:56 AM 42.8 °F 38.0 °F 35.6 °F 76% 30.46 in 10.0 mi East 8.1 mph - N/A   Overcast
9:16 AM 42.8 °F 37.0 °F 35.6 °F 76% 30.45 in 10.0 mi East 10.4 mph 17.3 mph N/A   Overcast
9:36 AM 42.8 °F 37.0 °F 35.6 °F 76% 30.45 in 10.0 mi ESE 10.4 mph - N/A   Overcast
9:56 AM 41.0 °F 35.2 °F 35.6 °F 81% 30.45 in 10.0 mi ESE 9.2 mph - N/A   Overcast
10:16 AM 41.0 °F 33.9 °F 35.6 °F 81% 30.44 in 10.0 mi ESE 12.7 mph - N/A   Overcast
10:36 AM 41.0 °F 34.7 °F 35.6 °F 81% 30.45 in 10.0 mi East 10.4 mph - N/A   Overcast
10:56 AM 42.8 °F 37.0 °F 35.6 °F 76% 30.46 in 10.0 mi East 10.4 mph - N/A   Overcast
11:16 AM 42.8 °F 36.6 °F 35.6 °F 76% 30.46 in 10.0 mi East 11.5 mph - N/A   Overcast
11:36 AM 41.0 °F 37.1 °F 33.8 °F 76% 30.46 in 10.0 mi SSE 5.8 mph - N/A   Overcast
11:56 AM 41.0 °F 34.7 °F 35.6 °F 81% 30.45 in 10.0 mi East 10.4 mph - N/A   Overcast
12:16 PM 42.8 °F 36.6 °F 35.6 °F 76% 30.45 in 10.0 mi East 11.5 mph - N/A   Overcast
12:36 PM 41.0 °F 35.2 °F 35.6 °F 81% 30.45 in 10.0 mi East 9.2 mph - N/A   Overcast
12:56 PM 42.8 °F 36.6 °F 35.6 °F 76% 30.44 in 10.0 mi East 11.5 mph - N/A   Overcast
1:16 PM 42.8 °F 36.6 °F 35.6 °F 76% 30.44 in 10.0 mi East 11.5 mph 16.1 mph N/A   Overcast
1:36 PM 42.8 °F 35.4 °F 35.6 °F 76% 30.43 in 10.0 mi East 15.0 mph - N/A   Overcast
1:56 PM 42.8 °F 36.2 °F 35.6 °F 76% 30.43 in 10.0 mi ESE 12.7 mph 17.3 mph N/A   Overcast
2:16 PM 42.8 °F - 33.8 °F 70% 30.44 in 10.0 mi Calm Calm - N/A   Overcast
2:36 PM 42.8 °F 37.5 °F 35.6 °F 76% 30.43 in 10.0 mi East 9.2 mph - N/A   Overcast
2:56 PM 42.8 °F 37.0 °F 35.6 °F 76% 30.44 in 10.0 mi East 10.4 mph - N/A   Overcast
3:16 PM 42.8 °F 36.6 °F 35.6 °F 76% 30.43 in 10.0 mi East 11.5 mph - N/A   Overcast
3:36 PM 42.8 °F 36.2 °F 35.6 °F 76% 30.42 in 10.0 mi East 12.7 mph - N/A   Overcast
3:56 PM 42.8 °F 36.2 °F 35.6 °F 76% 30.42 in 10.0 mi ESE 12.7 mph - N/A   Overcast
4:16 PM 42.8 °F 36.2 °F 35.6 °F 76% 30.41 in 10.0 mi East 12.7 mph - N/A   Overcast
4:36 PM 42.8 °F 37.0 °F 35.6 °F 76% 30.41 in 10.0 mi East 10.4 mph - N/A   Overcast
4:56 PM 41.0 °F 34.3 °F 35.6 °F 81% 30.40 in 10.0 mi East 11.5 mph - N/A   Overcast
5:16 PM 41.0 °F 34.3 °F 35.6 °F 81% 30.39 in 10.0 mi East 11.5 mph - N/A   Overcast
5:36 PM 41.0 °F 34.3 °F 33.8 °F 76% 30.38 in 10.0 mi East 11.5 mph 17.3 mph N/A   Overcast
5:56 PM 41.0 °F 33.9 °F 33.8 °F 76% 30.38 in 10.0 mi East 12.7 mph - N/A   Overcast
6:16 PM 41.0 °F 33.9 °F 33.8 °F 76% 30.36 in 10.0 mi East 12.7 mph - N/A   Overcast
6:36 PM 41.0 °F 34.7 °F 33.8 °F 76% 30.36 in 10.0 mi East 10.4 mph - N/A   Overcast
6:56 PM 41.0 °F 33.5 °F 33.8 °F 76% 30.36 in 10.0 mi East 13.8 mph - N/A   Overcast
7:16 PM 41.0 °F 33.9 °F 33.8 °F 76% 30.35 in 10.0 mi East 12.7 mph - N/A   Overcast
7:36 PM 41.0 °F 34.3 °F 33.8 °F 76% 30.35 in 10.0 mi East 11.5 mph - N/A   Overcast
7:56 PM 42.8 °F 36.2 °F 33.8 °F 70% 30.35 in 10.0 mi East 12.7 mph - N/A   Overcast
8:16 PM 41.0 °F 34.3 °F 33.8 °F 76% 30.34 in 10.0 mi East 11.5 mph - N/A   Overcast
8:36 PM 41.0 °F 33.9 °F 33.8 °F 76% 30.34 in 10.0 mi ESE 12.7 mph - N/A   Overcast
8:56 PM 42.8 °F 36.2 °F 33.8 °F 70% 30.33 in 10.0 mi East 12.7 mph - N/A   Overcast
9:16 PM 42.8 °F 37.5 °F 35.6 °F 76% 30.33 in 10.0 mi East 9.2 mph - N/A   Overcast
9:36 PM 42.8 °F 37.5 °F 33.8 °F 70% 30.32 in 10.0 mi ENE 9.2 mph - N/A   Overcast
9:56 PM 42.8 °F 38.6 °F 33.8 °F 70% 30.32 in 10.0 mi ESE 6.9 mph - N/A   Overcast
10:16 PM 42.8 °F 37.0 °F 35.6 °F 76% 30.31 in 10.0 mi East 10.4 mph 16.1 mph N/A   Overcast
10:36 PM 42.8 °F 36.6 °F 35.6 °F 76% 30.30 in 10.0 mi East 11.5 mph 19.6 mph N/A   Overcast
10:56 PM 41.0 °F 33.5 °F 35.6 °F 81% 30.29 in 10.0 mi East 13.8 mph 19.6 mph N/A   Overcast
11:16 PM 42.8 °F 35.4 °F 35.6 °F 76% 30.28 in 10.0 mi East 15.0 mph - N/A   Overcast
11:36 PM 42.8 °F 35.8 °F 35.6 °F 76% 30.28 in 10.0 mi East 13.8 mph 19.6 mph N/A   Overcast
11:56 PM 42.8 °F 35.1 °F 37.4 °F 81% 30.28 in 10.0 mi East 16.1 mph 19.6 mph N/A   Overcast